Regional Weather Roundup
Issued by NWS

Home | Current Version | Previous Version | Graphics & Text | Print | Product List | Glossary On
Versions: 1 2 3 4 5 6 7 8 9 10 11 12 13 14 15 16 17 18 19 20 21 22 23 24 25 26
000
ASUS45 KBOU 122310
RWRCO

WEATHER ROUNDUP FOR COLORADO
NATIONAL WEATHER SERVICE DENVER/BOULDER CO
400 PM MST TUE DEC 12 2017

NOTE: "FAIR" INDICATES FEW OR NO CLOUDS BELOW 12000 FEET WITH NO
SIGNIFICANT WEATHER AND/OR OBSTRUCTIONS TO VISIBILITY.

COZ001>005-013-030-031-130000-
...NORTHWEST COLORADO...

CITY           SKY/WX    TMP DP  RH WIND       PRES   REMARKS
CRAIG          FAIR      38  23  55 SW5       30.37F
HAYDEN         FAIR      41  22  46 CALM      30.39F
MEEKER         FAIR      53   7  15 SW5       30.36F
RABBIT EARS PA FAIR      32   9  37 W12G20    30.46S WCI  23
STEAMBOAT SPGS FAIR      41  20  43 CALM      30.38F
WALDEN         FAIR      39  14  35 S7        30.39F
$$

COZ006>008-011-130000-
...WEST CENTRAL VALLEYS...

CITY           SKY/WX    TMP DP  RH WIND       PRES   REMARKS
GRAND JUNCTION FAIR      51  13  21 NW7       30.34F
MONTROSE       FAIR      51  10  19 N3        30.37F
EAGLE          FAIR      43  15  32 CALM      30.42F
RIFLE          FAIR      51  13  21 CALM      30.35F
DELTA          FAIR      55   8  15 SW3       30.35F
NUCLA          FAIR      54   5  14 CALM      30.39F
$$

COZ017>023-064>068-130000-
...SOUTHWEST COLORADO...

CITY           SKY/WX    TMP DP  RH WIND       PRES   REMARKS
DURANGO        FAIR      52   4  14 SW8       30.33F
CORTEZ         FAIR      49   4  16 SW6       30.34F
PAGOSA SPRINGS FAIR      54  -6   8 SW5       30.36S
TELLURIDE      FAIR      50   6  17 W15G21    30.43S
WOLF CREEK PAS FAIR      37   3  23 SW5       30.56F
$$

COZ009-010-012-014-032>034-037-058>063-130000-
...CENTRAL COLORADO...

CITY           SKY/WX    TMP DP  RH WIND       PRES   REMARKS
ASPEN          FAIR      46  13  26 NW5       30.39F
BUENA VISTA    FAIR      54   5  13 NW18G25   30.32S
COPPER MTN     NOT AVBL
BERTHOUD PASS  FAIR      23  12  63 NW14G30   30.49R WCI  11
COTTONWOOD PAS FAIR      52   3  14 W9G18     30.41S
GUNNISON       FAIR      45   9  23 CALM      30.39F
KREMMLING      FAIR      37  19  48 CALM      30.44F
LEADVILLE      FAIR      41  10  28 N12G22    30.42S
MONARCH PASS   FAIR      34   5  29 SW17G23   30.61S WCI  23
SALIDA         FAIR      57   3  11 SW12      30.37S
SUNLIGHT       FAIR      34   1  25 NW7       30.54F WCI  28
WILKERSON PASS FAIR      41   1  19 N5        30.48S
$$

COZ069>075-130000-
...SAN LUIS VALLEY/SANGRE DE CRISTO MOUNTAINS...

CITY           SKY/WX    TMP DP  RH WIND       PRES   REMARKS
ALAMOSA        FAIR      50   3  14 CALM      30.34F
DEL NORTE      FAIR      47   5  17 E3        30.36F
LA VETA PASS   FAIR      39   7  26 SW16        N/A
SAGUACHE       FAIR      46   3  17 SE6       30.36F
$$

COZ035-036-038>040-130000-
...NORTHERN COLORADO FRONT RANGE...

CITY           SKY/WX    TMP DP  RH WIND       PRES   REMARKS
DENVER INTL AP FAIR      63  13  14 N6        30.16F
DMNS CITY PARK NOT AVBL
AURORA         PTCLDY    62  13  15 N7        30.18F
FRONT RANGE AP PTCLDY    61  16  17 N12       30.18F
ERIE MUNI ARPT FAIR      61  16  17 CALM      30.21F
BOULDER MUN AP FAIR      63  18  17 W10       30.17S
CENTENNIAL     FAIR      62  16  16 N7        30.18F
BROOMFIELD     PTCLDY    64  12  13 W16       30.19F
FORT COLLINS   FAIR      60  21  22 SW5       30.16F
LONGMONT       FAIR      63  16  16 CALM      30.18S
$$

COZ041-046-047-076>085-087-088-130000-
...PIKES PEAK/PALMER DIVIDE AND SOUTHERN FOOTHILLS...

CITY           SKY/WX    TMP DP  RH WIND       PRES   REMARKS
COLO. SPRINGS  FAIR      56  11  16 S7        30.22F
A. F. ACADEMY  FAIR      56   8  14 S5        30.23S
SCHRIEVER AFB  FAIR      56   7  14 S3        30.22F
CHEYENNE MTN   FAIR      49  11  21 CALM      30.19F
ELLICOTT         N/A    N/A N/A N/A SW6       30.21F
FALCON         FAIR      55   6  14 SW3       30.26S
FORT CARSON    FAIR      57  11  16 SE7       30.20F
LIMON          FAIR      60  15  17 N6        30.17F
MONUMENT HILL  FAIR      55  12  18 NE3       30.26S
CANON CITY     FAIR      63  14  15 NE7       30.18F
WALSENBURG     FAIR      63  12  14 SE5       30.21S
TRINIDAD       FAIR      60  10  14 E7        30.21F
$$

COZ042>045-048>051-090-091-130000-
...NORTHEAST COLORADO...

CITY           SKY/WX    TMP DP  RH WIND       PRES   REMARKS
GREELEY ARPT   FAIR      62  19  19 CALM      30.15F
AKRON          FAIR      57  13  17 MISG      30.12F
BURLINGTON     FAIR      61  16  17 NW5       30.12F
WRAY           FAIR      61  12  15 W5        30.09F
YUMA           FAIR      57  18  21 W5        30.09F
STERLING       FAIR      63  19  19 N7        30.08S
HOLYOKE        FAIR      63  18  17 W5        30.07F
FORT MORGAN    FAIR      60  11  15 W5        30.13F
$$

COZ086-089-092>099-130000-
...SOUTHEAST COLORADO...

CITY           SKY/WX    TMP DP  RH WIND       PRES   REMARKS
PUEBLO         FAIR      64  10  12 SE6       30.16F
LA JUNTA       FAIR      62  14  15 S6        30.15F
LAMAR          FAIR      61  12  14 SW5       30.13F
SPRINGFIELD      N/A     61  14  16 N3        30.17F
$$




USA.gov is the U.S. government's official web portal to all federal, state and local government web resources and services.